Zurück zum Katalog

GLOBALSTAR M082

AktivKommunikationLEO
NORAD 38042·PAYLOAD·🇺🇸 United States

Gestartet Dec 28, 2011 von Baikonur Cosmodrome

Loading…

Nächste Überflüge (nächste 24 Stunden)

TLE

AktuellSource: Space-Track

Epoche: Sep 14, 2026, 11:45 UTC

1 38042U 11080C   26257.48964758 -.00000116  00000-0 -66871-4 0  9992
2 38042  52.0074  62.6711 0000956 104.5240 290.1493 12.62262840680876

Verfolge GLOBALSTAR M082 in Echtzeit mit AllMySat

Download on the App Store